Location: Lawrence
(38.9720°N, 95.2350°W)
Time: 02:56:51
(UTC-05:00)

Amateur Radio Satellites - All Passes

Search period start: 19 April 2015 02:26
Search period end: 20 April 2015 02:26
Location: Lawrence, 38.9720°N, 95.2350°W

Satellite Date Start Highest point End Downlink Frequencies (MHz)
Time Altitude Azimuth
RS-15 19 Apr 02:42:55 02:53:58 50° 248° (WSW) 03:05:17 29.354- 29.394
STARS 19 Apr 02:43:31 02:46:38 20° 68° (ENE) 02:49:54 437.465
BEESAT 19 Apr 02:44:33 02:49:08 44° 261° (W) 02:53:43 436.000
SWISSCUBE 19 Apr 02:45:51 02:50:22 39° 262° (W) 02:54:51 437.505
PHONESAT 2.4 19 Apr 02:51:23 02:54:27 27° 208° (SSW) 02:57:27 2401.200-2431.200
Cosmos 2504 19 Apr 03:02:26 03:10:19 50° 270° (W) 03:17:33 435.465 / 435.565
KKS-1 19 Apr 03:05:34 03:09:53 55° 74° (ENE) 03:14:15 437.445
Oscar 19 19 Apr 03:30:39 03:35:38 46° 288° (WNW) 03:40:34 437.125/150
Gurwin Techsat 1B 19 Apr 03:33:50 03:38:59 50° 99° (E) 03:44:08 435.225
AO-7 19 Apr 03:39:47 03:41:15 11° 85° (E) 03:43:34 29.400- 29.500
HORYU 2 19 Apr 03:44:03 03:44:31 10° 88° (E) 03:45:17 437.375
GONETS M04 19 Apr 03:47:40 03:54:19 24° 65° (ENE) 04:01:15
ITAMSAT 1 19 Apr 03:48:15 03:53:28 80° 104° (ESE) 03:58:39 435.822/435.867
ITUPSAT 1 19 Apr 03:51:11 03:51:48 10° 272° (W) 03:52:03 437.325
JAS-2 19 Apr 04:05:44 04:09:10 15° 84° (E) 04:12:45 435.910
MOZHAYETS 4 19 Apr 04:15:38 04:18:56 20° 68° (ENE) 04:22:23
STARS 19 Apr 04:18:53 04:22:54 35° 263° (W) 04:26:55 437.465
KKS-1 19 Apr 04:44:59 04:46:57 12° 270° (W) 04:48:41 437.445
BEESAT 2 19 Apr 04:46:01 04:49:39 31° 115° (ESE) 04:53:22 435.950
DANDE 19 Apr 04:50:30 04:55:54 26° 71° (ENE) 05:02:24 436.750
BEESAT 3 19 Apr 04:53:59 04:57:53 47° 117° (ESE) 05:01:53 437.485
CUSAT 1 19 Apr 04:59:38 05:05:59 38° 74° (ENE) 05:13:27 437.405
AIST 2 19 Apr 05:01:52 05:04:15 15° 110° (ESE) 05:06:50 435.215
Gurwin Techsat 1B 19 Apr 05:14:44 05:18:38 21° 295° (WNW) 05:22:23 435.225
HORYU 2 19 Apr 05:17:14 05:21:44 68° 285° (WNW) 05:26:11 437.375
M-CUBED/EXP-1 PRIME 19 Apr 05:18:17 05:21:42 21° 62° (ENE) 05:25:18 437.505
AO-7 19 Apr 05:27:28 05:35:45 69° 104° (ESE) 05:44:04 29.400- 29.500
ITAMSAT 1 19 Apr 05:30:03 05:32:22 13° 298° (WNW) 05:34:25 435.822/435.867
CUBESAT XI-V 19 Apr 05:34:26 05:34:37 10° 63° (ENE) 05:35:06 437.345
GONETS M04 19 Apr 05:43:18 05:52:08 72° 266° (W) 06:00:52
JAS-2 19 Apr 05:48:32 05:55:20 75° 286° (WNW) 06:01:14 435.910
MOZHAYETS 4 19 Apr 05:51:34 05:55:56 39° 263° (W) 06:00:18
Cosmos 2499 19 Apr 05:53:44 05:59:41 23° 65° (ENE) 06:05:35 435.465 / 435.565
STRAND 1 19 Apr 05:56:15 05:56:37 10° 61° (ENE) 05:57:19 437.568
PRISM 19 Apr 06:04:02 06:05:54 13° 66° (ENE) 06:07:58 437.425
AUBIESAT-1 19 Apr 06:06:18 06:10:51 54° 68° (ENE) 06:15:34 437.475
BEESAT 2 19 Apr 06:24:25 06:27:49 24° 311° (NW) 06:31:12 435.950
DANDE 19 Apr 06:32:44 06:39:26 63° 264° (W) 06:47:32 436.750
BEESAT 3 19 Apr 06:33:21 06:36:12 17° 315° (NW) 06:38:58 437.485
AIST 2 19 Apr 06:38:21 06:42:29 49° 305° (NW) 06:46:41 435.215
CUSAT 1 19 Apr 06:42:10 06:48:48 44° 266° (W) 06:56:22 437.405
M-CUBED/EXP-1 PRIME 19 Apr 06:51:44 06:56:13 46° 257° (WSW) 07:00:52 437.505
CUBESAT XI-V 19 Apr 07:06:49 07:11:29 83° 255° (WSW) 07:16:10 437.345
SRMSAT 19 Apr 07:18:51 07:19:21 10° 174° (S) 07:19:55 437.500
AO-7 19 Apr 07:21:17 07:27:59 27° 302° (WNW) 07:34:27 29.400- 29.500
CUTE-I 19 Apr 07:22:23 07:27:32 49° 99° (E) 07:32:41 437.470
JUGNU 19 Apr 07:22:40 07:23:48 11° 184° (S) 07:24:55 437.505
Cubesat XI-IV 19 Apr 07:29:40 07:34:56 59° 101° (E) 07:40:10 437.490
STRAND 1 19 Apr 07:30:00 07:35:07 85° 76° (ENE) 07:40:16 437.568
JAS-2 19 Apr 07:36:26 07:39:09 12° 305° (NW) 07:41:24 435.910
PRISM 19 Apr 07:36:53 07:41:00 52° 260° (W) 07:45:05 437.425
AUBIESAT-1 19 Apr 07:43:01 07:46:00 16° 266° (W) 07:48:50 437.475
GONETS M04 19 Apr 07:44:25 07:47:36 12° 283° (WNW) 07:50:00
Cosmos 2499 19 Apr 07:45:47 07:53:43 65° 267° (W) 08:00:59 435.465 / 435.565
BRITE-PL 19 Apr 08:25:47 08:28:21 15° 91° (E) 08:31:18 437.365/2234.400
GOMX 1 19 Apr 08:50:23 08:53:34 17° 91° (E) 08:57:04 467.674
CUTE-I 19 Apr 09:03:23 09:07:18 21° 295° (WNW) 09:11:03 437.470
SRMSAT 19 Apr 09:06:15 09:07:37 11° 184° (S) 09:08:58 437.500
Cubesat XI-IV 19 Apr 09:11:05 09:14:37 18° 296° (WNW) 09:17:57 437.490
HO-68 19 Apr 09:13:41 09:19:40 29° 94° (E) 09:25:48 435.675
AAUSAT CUBESAT 2 19 Apr 09:18:09 09:19:05 11° 88° (E) 09:20:18 437.432
Cosmos 2491 19 Apr 09:24:17 09:27:59 14° 57° (ENE) 09:32:21 435.465 / 435.565
ANTELSAT 19 Apr 09:47:15 09:48:04 11° 63° (ENE) 09:49:09 437.575/2403.000
UWE-3 19 Apr 09:57:39 09:58:47 11° 88° (E) 10:00:15 435.000/436.395/437.385
DOVE 4 19 Apr 10:00:52 10:05:46 60° 100° (E) 10:10:55 437.250
CINEMA 3 19 Apr 10:02:01 10:06:21 31° 95° (E) 10:10:49 145.822/145.860
COMPASS 1 19 Apr 10:02:19 10:06:22 43° 98° (E) 10:10:23 437.405
BRITE-PL 19 Apr 10:02:26 10:07:13 60° 285° (WNW) 10:12:23 437.365/2234.400
PCSat 19 Apr 10:04:00 10:09:07 46° 113° (ESE) 10:14:18 145.827
O/OREOS (USA 219) 19 Apr 10:09:32 10:14:01 61° 66° (ENE) 10:18:26 437.305
CANX-2 19 Apr 10:12:18 10:16:38 83° 283° (WNW) 10:20:54 2200.000
SEEDS 19 Apr 10:16:13 10:20:30 81° 102° (ESE) 10:24:44 437.485
CUTE 1.7 + AOD 2 19 Apr 10:22:37 10:26:54 70° 284° (WNW) 10:31:09 437.475
FUNcube-1 19 Apr 10:25:10 10:28:10 18° 91° (E) 10:31:21 145.935
GOMX 1 19 Apr 10:27:10 10:31:58 52° 286° (WNW) 10:37:02 467.674
POPSAT HIP 1 19 Apr 10:32:02 10:34:17 15° 67° (ENE) 10:36:44 437.405
NANOSAT C BR1 19 Apr 10:32:11 10:34:27 15° 67° (ENE) 10:36:53 145.865
YUBILEINY 19 Apr 10:33:05 10:37:22 15° 79° (E) 10:42:16 435.215
TIGRISAT 19 Apr 10:37:37 10:41:37 35° 71° (ENE) 10:45:47 435.000
UNISAT 6 19 Apr 10:38:29 10:42:33 37° 71° (ENE) 10:46:47 437.425
UKube-1 19 Apr 10:43:06 10:45:28 15° 91° (E) 10:48:01 .
ZACube-1 19 Apr 10:46:45 10:50:49 31° 96° (E) 10:54:55 437.345
CUBEBUG 2 19 Apr 10:49:43 10:54:21 52° 99° (E) 10:59:01 437.445
AAUSAT CUBESAT 2 19 Apr 10:51:01 10:55:10 56° 285° (WNW) 10:59:14 437.432
POLYITAN 1 19 Apr 10:56:53 11:00:28 28° 70° (ENE) 11:04:07 437.675
HO-68 19 Apr 11:00:47 11:07:43 52° 292° (WNW) 11:14:34 435.675
Oscar 11 19 Apr 11:03:03 11:07:26 86° 102° (ESE) 11:11:46 145.826/435.025
DUCHIFAT 1 19 Apr 11:06:44 11:10:30 34° 72° (ENE) 11:14:21 145.980
DELFI C3 19 Apr 11:13:00 11:17:05 87° 101° (E) 11:21:07 145.870
Cosmos 2491 19 Apr 11:18:00 11:26:50 73° 80° (E) 11:35:41 435.465 / 435.565
QB50P1 19 Apr 11:19:10 11:23:13 50° 74° (ENE) 11:27:19 145.935-145.965
ANTELSAT 19 Apr 11:19:49 11:24:15 76° 258° (WSW) 11:28:50 437.575/2403.000
DX 1 19 Apr 11:24:21 11:28:32 47° 99° (E) 11:32:45 434.975-435.025
UWE-3 19 Apr 11:31:13 11:35:53 70° 284° (WNW) 11:40:32 435.000/436.395/437.385
BUGSAT 1 19 Apr 11:33:47 11:37:40 49° 74° (ENE) 11:41:35 437.445
COMPASS 1 19 Apr 11:39:11 11:41:43 15° 293° (WNW) 11:44:06 437.405
CINEMA 3 19 Apr 11:39:17 11:43:27 28° 290° (WNW) 11:47:37 145.822/145.860
DOVE 4 19 Apr 11:40:04 11:43:10 16° 293° (WNW) 11:46:08 437.250
HUMSAT D 19 Apr 11:40:06 11:44:23 57° 100° (E) 11:48:39 437.325/437.525
QB50P2 19 Apr 11:42:26 11:46:39 84° 257° (WSW) 11:50:54 145.880/145.840
PCSat 19 Apr 11:48:14 11:52:46 26° 310° (NW) 11:57:14 145.827
O/OREOS (USA 219) 19 Apr 11:51:29 11:52:56 11° 261° (W) 11:54:07 437.305
FUNcube-1 19 Apr 12:00:23 12:04:44 42° 287° (WNW) 12:09:03 145.935
VELOX 1 19 Apr 12:02:52 12:07:14 56° 100° (E) 12:11:36 145.980
POPSAT HIP 1 19 Apr 12:05:49 12:09:50 45° 261° (W) 12:13:54 437.405
NANOSAT C BR1 19 Apr 12:05:57 12:09:59 45° 262° (W) 12:14:01 145.865
TIGRISAT 19 Apr 12:15:13 12:18:32 20° 268° (W) 12:21:47 435.000
UNISAT 6 19 Apr 12:16:18 12:19:32 19° 268° (W) 12:22:41 437.425
AISAT 19 Apr 12:17:44 12:22:12 87° 103° (ESE) 12:26:40 437.250
UKube-1 19 Apr 12:17:45 12:21:54 44° 287° (WNW) 12:26:00 .
AIST 1 19 Apr 12:18:58 12:21:15 14° 70° (ENE) 12:23:43
ZACube-1 19 Apr 12:23:16 12:27:03 25° 291° (WNW) 12:30:45 437.345
YUBILEINY 19 Apr 12:24:13 12:33:04 85° 95° (E) 12:41:56 435.215
CUBEBUG 2 19 Apr 12:27:38 12:30:41 17° 293° (WNW) 12:33:33 437.445
CUBEBUG 1 19 Apr 12:29:21 12:33:36 52° 99° (E) 12:37:52 437.445
50 SAT 19 Apr 12:29:46 12:33:47 58° 285° (WNW) 12:37:44 437.505
ESTCUBE 1 19 Apr 12:31:43 12:36:11 64° 101° (E) 12:40:37 437.505/2401.250
POLYITAN 1 19 Apr 12:33:04 12:36:24 22° 266° (W) 12:39:41 437.675
TISAT 1 19 Apr 12:40:20 12:42:19 13° 90° (E) 12:44:31 437.305
SPROUT 19 Apr 12:42:44 12:45:45 19° 92° (E) 12:48:53 437.525
DUCHIFAT 1 19 Apr 12:43:34 12:46:29 18° 268° (W) 12:49:17 145.980
QB50P1 19 Apr 12:57:35 12:59:28 12° 270° (W) 13:01:08 145.935-145.965
DX 1 19 Apr 13:01:50 13:04:28 15° 294° (WNW) 13:06:55 434.975-435.025
BEESAT 2 19 Apr 13:06:59 13:09:37 17° 44° (NE) 13:12:20 435.950
Oscar 19 19 Apr 13:07:59 13:12:09 26° 68° (ENE) 13:16:27 437.125/150
BUGSAT 1 19 Apr 13:12:05 13:13:31 11° 270° (W) 13:14:42 437.445
BEESAT 3 19 Apr 13:14:23 13:17:36 22° 48° (NE) 13:20:50 437.485
Cosmos 2491 19 Apr 13:16:26 13:22:57 22° 278° (W) 13:29:02 435.465 / 435.565
HUMSAT D 19 Apr 13:17:38 13:19:43 13° 294° (WNW) 13:21:35 437.325/437.525
ITAMSAT 1 19 Apr 13:29:04 13:31:18 13° 62° (ENE) 13:33:49 435.822/435.867
VELOX 1 19 Apr 13:41:08 13:43:23 13° 295° (WNW) 13:45:25 145.980
Cosmos 2504 19 Apr 13:45:36 13:52:36 29° 84° (E) 13:59:55 435.465 / 435.565
AIST 1 19 Apr 13:55:10 13:59:12 41° 267° (W) 14:03:11
SO-50 19 Apr 13:57:19 14:01:56 78° 119° (ESE) 14:06:44 436.795
CUBEBUG 1 19 Apr 14:07:17 14:09:36 14° 294° (WNW) 14:11:43 437.445
ESTCUBE 1 19 Apr 14:10:39 14:12:35 12° 295° (WNW) 14:14:17 437.505/2401.250
ITUPSAT 1 19 Apr 14:11:09 14:14:44 21° 93° (E) 14:18:25 437.325
TISAT 1 19 Apr 14:14:20 14:18:25 47° 287° (WNW) 14:22:30 437.305
SPROUT 19 Apr 14:18:01 14:21:58 35° 288° (WNW) 14:25:52 437.525
YUBILEINY 19 Apr 14:25:02 14:31:14 19° 298° (WNW) 14:36:58 435.215
ISS 19 Apr 14:32:59 14:36:00 37° 136° (SE) 14:39:04 145.825
AO-7 19 Apr 14:36:26 14:41:23 18° 53° (NE) 14:46:42 29.400- 29.500
BEESAT 2 19 Apr 14:44:04 14:48:04 51° 243° (WSW) 14:52:00 435.950
BEESAT 19 Apr 14:45:49 14:50:28 51° 100° (E) 14:55:05 436.000
Oscar 19 19 Apr 14:46:40 14:51:22 35° 263° (W) 14:56:05 437.125/150
SWISSCUBE 19 Apr 14:47:05 14:51:46 57° 100° (E) 14:56:27 437.505
BEESAT 3 19 Apr 14:52:00 14:55:43 34° 245° (WSW) 14:59:21 437.485
Gurwin Techsat 1B 19 Apr 14:53:39 14:58:55 70° 75° (ENE) 15:04:14 435.225
RS-15 19 Apr 14:54:26 15:03:16 32° 106° (ESE) 15:12:33 29.354- 29.394
KKS-1 19 Apr 15:00:03 15:01:35 12° 89° (E) 15:03:25 437.445
AIST 2 19 Apr 15:01:09 15:05:24 74° 58° (ENE) 15:09:33 435.215
ITAMSAT 1 19 Apr 15:05:02 15:10:15 77° 257° (WSW) 15:15:27 435.822/435.867
Cosmos 2504 19 Apr 15:36:48 15:45:29 62° 282° (WNW) 15:54:16 435.465 / 435.565
SO-50 19 Apr 15:40:12 15:43:08 16° 320° (NW) 15:45:59 436.795
ITUPSAT 1 19 Apr 15:48:23 15:52:47 37° 289° (WNW) 15:57:06 437.325
JAS-2 19 Apr 15:56:44 16:04:03 48° 69° (ENE) 16:11:28 435.910
STARS 19 Apr 16:09:26 16:13:41 45° 99° (E) 16:17:58 437.465
ISS 19 Apr 16:09:39 16:12:27 25° 332° (NNW) 16:15:15 145.825
HORYU 2 19 Apr 16:14:03 16:18:32 86° 253° (WSW) 16:23:04 437.375
AO-7 19 Apr 16:24:50 16:33:06 82° 71° (ENE) 16:41:26 29.400- 29.500
BEESAT 19 Apr 16:24:52 16:27:57 17° 295° (WNW) 16:30:51 436.000
SWISSCUBE 19 Apr 16:26:26 16:29:13 15° 295° (WNW) 16:31:47 437.505
KKS-1 19 Apr 16:34:16 16:38:42 59° 285° (WNW) 16:43:06 437.445
Gurwin Techsat 1B 19 Apr 16:36:50 16:39:31 13° 272° (W) 16:41:53 435.225
GONETS M04 19 Apr 16:47:53 16:54:42 28° 84° (E) 17:01:52
RS-15 19 Apr 17:04:03 17:14:54 68° 307° (NW) 17:25:59 29.354- 29.394
Cubesat XI-IV 19 Apr 17:15:12 17:16:27 11° 60° (ENE) 17:18:01 437.490
Cosmos 2504 19 Apr 17:38:11 17:41:11 11° 305° (NW) 17:43:26 435.465 / 435.565
JAS-2 19 Apr 17:42:05 17:49:10 37° 266° (W) 17:56:13 435.910
STARS 19 Apr 17:46:58 17:49:51 17° 294° (WNW) 17:52:34 437.465
MOZHAYETS 4 19 Apr 17:47:39 17:52:10 53° 99° (E) 17:56:39
CUSAT 1 19 Apr 18:09:55 18:12:11 19° 88° (E) 18:14:55 437.405
AO-7 19 Apr 18:21:10 18:26:57 19° 270° (W) 18:32:16 29.400- 29.500
Cosmos 2499 19 Apr 18:28:57 18:34:48 21° 82° (E) 18:41:05 435.465 / 435.565
M-CUBED/EXP-1 PRIME 19 Apr 18:36:27 18:39:00 16° 94° (E) 18:41:36 437.505
VERMONT LUNAR 19 Apr 18:42:18 18:42:52 10° 144° (SE) 18:43:32 437.305
GONETS M04 19 Apr 18:42:24 18:51:01 60° 282° (WNW) 18:59:43
CUTE-I 19 Apr 18:43:02 18:48:19 73° 75° (ENE) 18:53:40 437.470
Cubesat XI-IV 19 Apr 18:50:30 18:55:51 86° 76° (ENE) 19:01:13 437.490
PCSat 19 Apr 18:53:10 18:57:52 30° 51° (NE) 19:02:39 145.827
CUBESAT XI-V 19 Apr 19:05:17 19:09:07 26° 94° (E) 19:13:02 437.345
PRISM 19 Apr 19:21:10 19:24:22 22° 94° (E) 19:27:38 437.425
RS-15 19 Apr 19:21:30 19:30:00 24° 335° (NNW) 19:38:28 29.354- 29.394
AUBIESAT-1 19 Apr 19:24:02 19:28:16 48° 103° (ESE) 19:32:08 437.475
ISS 19 Apr 19:26:16 19:27:17 11° 12° (NNE) 19:28:19 145.825
MOZHAYETS 4 19 Apr 19:26:18 19:29:01 15° 294° (WNW) 19:31:30
BRITE-PL 19 Apr 19:37:45 19:39:01 11° 65° (ENE) 19:40:29 437.365/2234.400
PHONESAT 2.4 19 Apr 19:40:26 19:41:38 11° 144° (SE) 19:42:56 2401.200-2431.200
STRAND 1 19 Apr 19:42:10 19:46:38 31° 96° (E) 19:51:10 437.568
HO-68 19 Apr 19:42:24 19:47:15 21° 59° (ENE) 19:52:22 435.675
DANDE 19 Apr 19:47:31 19:49:54 22° 291° (WNW) 19:52:39 436.750
CUSAT 1 19 Apr 19:53:02 19:55:02 15° 296° (WNW) 19:57:11 437.405
GOMX 1 19 Apr 19:59:27 20:01:13 13° 66° (ENE) 20:03:13 467.674
M-CUBED/EXP-1 PRIME 19 Apr 20:09:59 20:14:13 43° 293° (WNW) 20:18:05 437.505
VERMONT LUNAR 19 Apr 20:16:39 20:19:56 47° 158° (SSE) 20:23:13 437.305
Cosmos 2499 19 Apr 20:18:16 20:27:09 80° 278° (W) 20:35:59 435.465 / 435.565
CUTE-I 19 Apr 20:26:33 20:29:03 13° 272° (W) 20:31:14 437.470
Cubesat XI-IV 19 Apr 20:35:37 20:36:45 10° 273° (W) 20:37:29 437.490
PCSat 19 Apr 20:36:23 20:41:23 38° 249° (WSW) 20:46:19 145.827
CUBESAT XI-V 19 Apr 20:42:36 20:46:33 28° 290° (WNW) 20:50:25 437.345
GONETS M04 19 Apr 20:48:42 20:50:20 10° 306° (NW) 20:51:10
COMPASS 1 19 Apr 20:52:46 20:56:17 26° 70° (ENE) 20:59:53 437.405
PRISM 19 Apr 20:56:22 20:59:50 26° 290° (WNW) 21:03:15 437.425
AUBIESAT-1 19 Apr 20:59:58 21:02:37 16° 301° (WNW) 21:05:02 437.475
ISS 19 Apr 21:01:25 21:04:26 34° 31° (NNE) 21:07:27 145.825
CINEMA 3 19 Apr 21:03:36 21:06:51 22° 69° (ENE) 21:10:17 145.822/145.860
CANX-2 19 Apr 21:03:50 21:08:02 59° 75° (ENE) 21:12:18 2200.000
DOVE 4 19 Apr 21:06:05 21:10:04 46° 73° (ENE) 21:14:11 437.250
SEEDS 19 Apr 21:06:59 21:11:04 47° 74° (ENE) 21:15:12 437.485
BRITE-PL 19 Apr 21:13:05 21:17:09 54° 260° (W) 21:21:15 437.365/2234.400
CUTE 1.7 + AOD 2 19 Apr 21:13:58 21:18:14 70° 76° (ENE) 21:22:32 437.475
PHONESAT 2.4 19 Apr 21:15:57 21:19:26 49° 157° (SSE) 21:22:54 2401.200-2431.200
STRAND 1 19 Apr 21:21:24 21:25:48 29° 292° (WNW) 21:30:07 437.568
FUNcube-1 19 Apr 21:21:35 21:23:05 12° 65° (ENE) 21:24:49 145.935
HO-68 19 Apr 21:27:06 21:34:17 78° 256° (WSW) 21:41:32 435.675
GOMX 1 19 Apr 21:34:58 21:38:59 49° 261° (W) 21:43:06 467.674
UKube-1 19 Apr 21:38:12 21:39:43 12° 64° (ENE) 21:41:27 .
AAUSAT CUBESAT 2 19 Apr 21:40:16 21:44:29 81° 78° (ENE) 21:48:44 437.432
RS-15 19 Apr 21:40:56 21:48:05 18° 11° (N) 21:55:35 29.354- 29.394
ZACube-1 19 Apr 21:42:22 21:45:31 21° 68° (ENE) 21:48:48 437.345
CUBEBUG 2 19 Apr 21:47:13 21:51:04 35° 72° (ENE) 21:55:06 437.445
VERMONT LUNAR 19 Apr 21:54:03 21:57:27 69° 354° (N) 22:00:49 437.305
Oscar 11 19 Apr 21:56:25 22:00:40 56° 75° (ENE) 22:04:58 145.826/435.025
DELFI C3 19 Apr 21:59:19 22:03:12 43° 74° (ENE) 22:07:07 145.870
Cosmos 2499 19 Apr 22:16:34 22:21:56 16° 300° (WNW) 22:26:44 435.465 / 435.565
DX 1 19 Apr 22:18:56 22:22:51 35° 71° (ENE) 22:26:50 434.975-435.025
Cosmos 2491 19 Apr 22:25:54 22:30:07 15° 79° (E) 22:34:58 435.465 / 435.565
UWE-3 19 Apr 22:27:07 22:31:23 83° 77° (ENE) 22:35:47 435.000/436.395/437.385
COMPASS 1 19 Apr 22:28:27 22:31:57 24° 266° (W) 22:35:23 437.405
SO-50 19 Apr 22:29:57 22:34:48 51° 54° (NE) 22:39:36 436.795
HUMSAT D 19 Apr 22:31:00 22:34:44 33° 72° (ENE) 22:38:35 437.325/437.525
YUBILEINY 19 Apr 22:36:23 22:44:26 40° 73° (ENE) 22:52:32 435.215
ISS 19 Apr 22:38:00 22:40:42 23° 227° (SW) 22:43:20 145.825
CINEMA 3 19 Apr 22:40:15 22:43:57 29° 265° (W) 22:47:43 145.822/145.860
CANX-2 19 Apr 22:43:08 22:44:27 11° 272° (W) 22:45:28 2200.000
SEEDS 19 Apr 22:44:57 22:47:12 14° 270° (W) 22:49:15 437.485
DOVE 4 19 Apr 22:46:19 22:48:16 13° 271° (W) 22:50:00 437.250
PHONESAT 2.4 19 Apr 22:54:05 22:57:40 70° 354° (N) 23:01:14 2401.200-2431.200
FUNcube-1 19 Apr 22:54:43 22:58:55 61° 260° (W) 23:03:16 145.935
VELOX 1 19 Apr 22:59:24 23:03:33 43° 73° (ENE) 23:07:45 145.980
UKube-1 19 Apr 23:11:08 23:15:24 62° 259° (W) 23:19:41 .
ANTELSAT 19 Apr 23:13:31 23:17:25 26° 94° (E) 23:21:24 437.575/2403.000
50 SAT 19 Apr 23:13:49 23:17:44 66° 76° (ENE) 23:21:44 437.505
AISAT 19 Apr 23:14:19 23:18:41 67° 74° (ENE) 23:23:04 437.250
ZACube-1 19 Apr 23:17:50 23:21:42 32° 264° (W) 23:25:36 437.345
HO-68 19 Apr 23:20:46 23:23:19 11° 275° (W) 23:25:15 435.675
CUBEBUG 1 19 Apr 23:24:29 23:28:28 37° 72° (ENE) 23:32:29 437.445
CUBEBUG 2 19 Apr 23:24:54 23:27:57 18° 269° (W) 23:30:56 437.445
QB50P2 19 Apr 23:30:04 23:32:53 17° 92° (E) 23:35:51 145.880/145.840
ESTCUBE 1 19 Apr 23:30:06 23:34:28 50° 74° (ENE) 23:38:52 437.505/2401.250
VERMONT LUNAR 19 Apr 23:31:43 23:35:07 80° 10° (N) 23:38:29 437.305
Oscar 11 19 Apr 23:35:34 23:37:18 12° 271° (W) 23:38:46 145.826/435.025
DELFI C3 19 Apr 23:36:30 23:38:38 13° 270° (W) 23:40:34 145.870
SPROUT 19 Apr 23:37:07 23:39:05 13° 66° (ENE) 23:41:15 437.525
NANOSAT C BR1 19 Apr 23:52:12 23:55:57 30° 96° (E) 23:59:45 145.865
POPSAT HIP 1 19 Apr 23:52:18 23:56:05 30° 96° (E) 23:59:54 437.405
RS-15 19 Apr 23:54:19 00:04:54 41° 42° (NE) 00:16:04 29.354- 29.394
DX 1 19 Apr 23:56:06 23:59:15 19° 267° (W) 00:02:16 434.975-435.025
TIGRISAT 20 Apr 00:06:33 00:11:18 88° 284° (WNW) 00:16:00 435.000
HUMSAT D 20 Apr 00:07:37 00:10:38 19° 268° (W) 00:13:33 437.325/437.525
UNISAT 6 20 Apr 00:07:47 00:12:33 83° 283° (WNW) 00:17:15 437.425
SO-50 20 Apr 00:11:29 00:15:01 19° 249° (WSW) 00:18:22 436.795
Cosmos 2491 20 Apr 00:17:08 00:25:51 86° 97° (E) 00:34:40 435.465 / 435.565
POLYITAN 1 20 Apr 00:18:35 00:22:52 64° 101° (E) 00:27:08 437.675
O/OREOS (USA 219) 20 Apr 00:20:13 00:24:48 88° 284° (WNW) 00:29:25 437.305
DUCHIFAT 1 20 Apr 00:27:52 00:32:09 79° 102° (ESE) 00:36:26 145.980
PHONESAT 2.4 20 Apr 00:32:29 00:36:04 82° 10° (N) 00:39:38 2401.200-2431.200
YUBILEINY 20 Apr 00:33:14 00:41:20 43° 272° (W) 00:49:16 435.215
VELOX 1 20 Apr 00:37:37 00:40:23 16° 269° (W) 00:42:58 145.980
QB50P1 20 Apr 00:41:03 00:45:19 71° 284° (WNW) 00:49:35 145.935-145.965
ANTELSAT 20 Apr 00:50:03 00:54:13 31° 290° (WNW) 00:58:17 437.575/2403.000
BUGSAT 1 20 Apr 00:52:14 00:56:21 76° 284° (WNW) 01:00:30 437.445
CUBEBUG 1 20 Apr 01:02:01 01:05:01 18° 268° (W) 01:07:53 437.445
QB50P2 20 Apr 01:04:58 01:08:57 37° 288° (WNW) 01:12:53 145.880/145.840
TISAT 1 20 Apr 01:05:03 01:09:14 76° 258° (WSW) 01:13:26 437.305
ESTCUBE 1 20 Apr 01:09:09 01:11:41 14° 270° (W) 01:14:01 437.505/2401.250
VERMONT LUNAR 20 Apr 01:09:27 01:12:30 32° 206° (SSW) 01:15:31 437.305
SPROUT 20 Apr 01:10:37 01:14:46 52° 260° (W) 01:18:58 437.525
ITUPSAT 1 20 Apr 01:17:04 01:20:44 23° 68° (ENE) 01:24:32 437.325
NANOSAT C BR1 20 Apr 01:28:20 01:31:40 22° 291° (WNW) 01:34:54 145.865
POPSAT HIP 1 20 Apr 01:28:29 01:31:50 22° 291° (WNW) 01:35:04 437.405
Cosmos 2504 20 Apr 01:31:49 01:39:42 48° 75° (ENE) 01:47:04 435.465 / 435.565
BEESAT 20 Apr 01:51:04 01:55:41 51° 73° (ENE) 02:00:21 436.000
SWISSCUBE 20 Apr 01:52:22 01:57:04 57° 73° (ENE) 02:01:47 437.505
POLYITAN 1 20 Apr 01:56:45 01:58:19 11° 295° (WNW) 01:59:38 437.675
KKS-1 20 Apr 01:58:58 01:59:22 10° 63° (ENE) 02:00:01 437.445
PHONESAT 2.4 20 Apr 02:10:57 02:14:11 32° 207° (SSW) 02:17:23 2401.200-2431.200
